Rolla, ND

7:54 AM CDT on May 23, 2017 (GMT -0500)
Rolla

Weather History for K06D - August, 2014

Change the Weather History Date:

Sunday, August 10, 2014

  Actual Average (KRUG) Record (KRUG)
Temperature  
Mean Temperature 60 °F -  
Max Temperature 68 °F 81 °F 103 °F (1988)
Min Temperature 53 °F 51 °F 35 °F (1985)
Degree Days  
Heating Degree Days 4    
Growing Degree Days 10 (Base 50)    
Moisture  
Dew Point 55 °F    
Average Humidity 81    
Maximum Humidity 100    
Minimum Humidity 49    
Precipitation  
Precipitation 0.00 in - - ()
Sea Level Pressure  
Sea Level Pressure 30.18 in    
Wind  
Wind Speed 12 mph (NNW)    
Max Wind Speed 16 mph    
Max Gust Speed 22 mph    
Visibility 10 miles    
Events      
Averages and records for this station are not official NWS values.
T = Trace of Precipitation, MM = Missing Value Source: NWS Daily Summary

Daily Weather History Graph

Daily Weather History Graph

Search for Another Location

Airport or City:

Trip Planner

Search our weather history database for the weather conditions in past years. The results will help you decide how hot, cold, wet, or windy it might be!

Date:

Astronomy

Aug. 10, 2014 Rise Set
Actual Time 6:24 AM CDT 9:02 PM CDT
Civil Twilight 5:48 AM CDT 9:38 PM CDT
Nautical Twilight 5:02 AM CDT 10:23 PM CDT
Astronomical Twilight 4:09 AM CDT 11:16 PM CDT
Moon 8:42 PM CDT (8/10) 6:22 AM CDT (8/10)
Length of Visible Light 15h 49m
Length of Day
14h 38m
Full, 100% of the Moon is Illuminated
Aug 10
Full
Aug 10
Full
Aug 17
Last Quarter
Aug 25
New
Sep 2
First Quarter

Hourly Weather History & Observations

Time (CDT) Temp. Dew Point Humidity Pressure Visibility Wind Dir Wind Speed Gust Speed Precip Events Conditions
12:15 AM 64.4 °F 64.4 °F 100% 30.09 in 10.0 mi NNW 11.5 mph - N/A   Overcast
12:35 AM 62.6 °F 62.6 °F 100% 30.09 in 10.0 mi NNW 12.7 mph - N/A   Overcast
12:55 AM 62.6 °F 62.6 °F 100% 30.09 in 10.0 mi NNW 11.5 mph - N/A   Overcast
1:15 AM 62.6 °F 62.6 °F 100% 30.09 in 10.0 mi NNW 12.7 mph - N/A   Overcast
1:35 AM 62.6 °F 62.6 °F 100% 30.09 in 10.0 mi NNW 12.7 mph - N/A   Overcast
1:55 AM 62.6 °F 62.6 °F 100% 30.10 in 10.0 mi NNW 11.5 mph - N/A   Overcast
2:15 AM 62.6 °F 62.6 °F 100% 30.10 in 10.0 mi NNW 11.5 mph - N/A   Overcast
2:35 AM 60.8 °F 60.8 °F 100% 30.11 in 10.0 mi NNW 10.4 mph - N/A   Mostly Cloudy
2:55 AM 62.6 °F 62.6 °F 100% 30.11 in 10.0 mi NNW 11.5 mph - N/A   Mostly Cloudy
3:15 AM 60.8 °F 60.8 °F 100% 30.12 in 10.0 mi NNW 11.5 mph - N/A   Overcast
3:35 AM 59.0 °F 59.0 °F 100% 30.12 in 10.0 mi NNW 9.2 mph - N/A   Overcast
3:55 AM 59.0 °F 59.0 °F 100% 30.13 in 10.0 mi North 10.4 mph - N/A   Overcast
4:15 AM 59.0 °F 59.0 °F 100% 30.13 in 10.0 mi North 9.2 mph - N/A   Overcast
4:35 AM 57.2 °F 57.2 °F 100% 30.13 in 10.0 mi NNW 9.2 mph - N/A   Mostly Cloudy
4:55 AM 57.2 °F 57.2 °F 100% 30.13 in 10.0 mi NNW 9.2 mph - N/A   Partly Cloudy
5:35 AM 55.4 °F 55.4 °F 100% 30.15 in 10.0 mi NNW 10.4 mph - N/A   Clear
6:15 AM 55.4 °F 55.4 °F 100% 30.15 in 10.0 mi NNW 10.4 mph - N/A   Clear
6:35 AM 55.4 °F 55.4 °F 100% 30.16 in 10.0 mi NNW 9.2 mph - N/A   Clear
6:55 AM 55.4 °F 55.4 °F 100% 30.16 in 10.0 mi NNW 8.1 mph - N/A   Clear
7:15 AM 55.4 °F 55.4 °F 100% 30.17 in 10.0 mi NNW 9.2 mph - N/A   Clear
7:35 AM 55.4 °F 55.4 °F 100% 30.17 in 10.0 mi NNW 12.7 mph - N/A   Clear
7:55 AM 57.2 °F 57.2 °F 100% 30.17 in 10.0 mi NNW 12.7 mph - N/A   Clear
8:15 AM 59.0 °F 55.4 °F 88% 30.17 in 10.0 mi NNW 12.7 mph - N/A   Clear
8:35 AM 59.0 °F 55.4 °F 88% 30.18 in 10.0 mi NNW 16.1 mph 20.7 mph N/A   Clear
8:55 AM 59.0 °F 55.4 °F 88% 30.18 in 10.0 mi NNW 12.7 mph - N/A   Clear
9:15 AM 59.0 °F 55.4 °F 88% 30.19 in 10.0 mi NNW 13.8 mph - N/A   Clear
9:35 AM 60.8 °F 53.6 °F 77% 30.19 in 10.0 mi North 15.0 mph - N/A   Clear
9:55 AM 60.8 °F 53.6 °F 77% 30.20 in 10.0 mi North 12.7 mph 19.6 mph N/A   Clear
10:15 AM 62.6 °F 53.6 °F 72% 30.20 in 10.0 mi North 12.7 mph - N/A   Clear
10:35 AM 62.6 °F 51.8 °F 68% 30.20 in 10.0 mi North 12.7 mph - N/A   Clear
10:55 AM 64.4 °F 51.8 °F 64% 30.20 in 10.0 mi NNW 15.0 mph - N/A   Clear
11:15 AM 64.4 °F 53.6 °F 68% 30.21 in 10.0 mi NNW 15.0 mph - N/A   Partly Cloudy
11:35 AM 64.4 °F 51.8 °F 64% 30.21 in 10.0 mi North 15.0 mph 18.4 mph N/A   Partly Cloudy
12:15 PM 64.4 °F 51.8 °F 64% 30.21 in 10.0 mi North 12.7 mph 19.6 mph N/A   Partly Cloudy
12:35 PM 64.4 °F 51.8 °F 64% 30.21 in 10.0 mi North 12.7 mph 21.9 mph N/A   Partly Cloudy
12:55 PM 66.2 °F 53.6 °F 64% 30.21 in 10.0 mi NNW 15.0 mph 18.4 mph N/A   Scattered Clouds
1:15 PM 66.2 °F 50.0 °F 56% 30.21 in 10.0 mi North 15.0 mph 18.4 mph N/A   Scattered Clouds
1:35 PM 68.0 °F 50.0 °F 52% 30.21 in 10.0 mi NNW 15.0 mph 20.7 mph N/A   Clear
1:55 PM 68.0 °F 50.0 °F 52% 30.21 in 10.0 mi North 12.7 mph 19.6 mph N/A   Scattered Clouds
2:15 PM 68.0 °F 50.0 °F 52% 30.20 in 10.0 mi North 16.1 mph 19.6 mph N/A   Scattered Clouds
2:35 PM 68.0 °F 50.0 °F 52% 30.20 in 10.0 mi NW 13.8 mph 19.6 mph N/A   Partly Cloudy
2:55 PM 68.0 °F 50.0 °F 52% 30.20 in 10.0 mi NNW 15.0 mph 20.7 mph N/A   Partly Cloudy
3:15 PM 68.0 °F 50.0 °F 52% 30.20 in 10.0 mi NW 10.4 mph 18.4 mph N/A   Clear
3:35 PM 68.0 °F 50.0 °F 52% 30.19 in 10.0 mi NW 12.7 mph 19.6 mph N/A   Clear
3:55 PM 68.0 °F 48.2 °F 49% 30.19 in 10.0 mi NW 13.8 mph 19.6 mph N/A   Scattered Clouds
4:15 PM 66.2 °F 48.2 °F 52% 30.19 in 10.0 mi NNW 11.5 mph 19.6 mph N/A   Partly Cloudy
4:35 PM 66.2 °F 50.0 °F 56% 30.19 in 10.0 mi NNW 15.0 mph 18.4 mph N/A   Clear
5:15 PM 66.2 °F 50.0 °F 56% 30.20 in 10.0 mi NNW 13.8 mph 18.4 mph N/A   Clear
5:35 PM 66.2 °F 50.0 °F 56% 30.20 in 10.0 mi NW 12.7 mph 18.4 mph N/A   Clear
5:55 PM 66.2 °F 50.0 °F 56% 30.20 in 10.0 mi NNW 11.5 mph - N/A   Clear
6:15 PM 66.2 °F 51.8 °F 60% 30.20 in 10.0 mi NNW 10.4 mph - N/A   Clear
6:35 PM 64.4 °F 53.6 °F 68% 30.20 in 10.0 mi NNW 10.4 mph - N/A   Clear
6:55 PM 64.4 °F 53.6 °F 68% 30.20 in 10.0 mi North 10.4 mph - N/A   Clear
7:15 PM 64.4 °F 53.6 °F 68% 30.20 in 10.0 mi NNW 10.4 mph - N/A   Clear
7:35 PM 64.4 °F 53.6 °F 68% 30.20 in 10.0 mi NNW 10.4 mph - N/A   Clear
7:55 PM 64.4 °F 53.6 °F 68% 30.19 in 10.0 mi NNW 9.2 mph - N/A   Clear
8:15 PM 62.6 °F 55.4 °F 77% 30.19 in 10.0 mi NNW 5.8 mph - N/A   Clear
8:35 PM 59.0 °F 55.4 °F 88% 30.20 in 10.0 mi NNW 4.6 mph - N/A   Clear
8:55 PM 57.2 °F 57.2 °F 100% 30.20 in 10.0 mi NW 6.9 mph - N/A   Clear
9:15 PM 57.2 °F 57.2 °F 100% 30.20 in 10.0 mi NNW 6.9 mph - N/A   Clear
9:35 PM 57.2 °F 57.2 °F 100% 30.21 in 10.0 mi NW 6.9 mph - N/A   Clear
9:55 PM 55.4 °F 55.4 °F 100% 30.21 in 10.0 mi NNW 6.9 mph - N/A   Clear
10:15 PM 53.6 °F 53.6 °F 100% 30.21 in 10.0 mi NNW 8.1 mph - N/A   Clear
10:35 PM 53.6 °F 53.6 °F 100% 30.22 in 10.0 mi NW 8.1 mph - N/A   Clear
11:15 PM 53.6 °F 53.6 °F 100% 30.22 in 10.0 mi NW 8.1 mph - N/A   Clear
11:35 PM 53.6 °F 53.6 °F 100% 30.22 in 10.0 mi NW 8.1 mph - N/A   Clear